This is the latest recevied weather packets stored in our database for station/object YD1OCG-15. If no packets are shown the sender has not sent any weather packets the latest 10 day(s).
| Time | Temp. | Humidity | Pressure | Rain* | Wind** | Luminosity | Snow |
|---|---|---|---|---|---|---|---|
| 1788407544 | 30° C | 80% | 1014 hPa | - | - | - | - |
| 1788405743 | 28.33° C | 62% | 1015 hPa | - | - | - | - |
| 1788403944 | 28.33° C | 65% | 1015 hPa | - | - | - | - |
| 1788402144 | 27.78° C | 68% | 1015 hPa | - | - | - | - |
| 1788380544 | 26.67° C | 80% | 1013 hPa | - | - | - | - |
| 1788373584 | 27.78° C | 78% | 1014 hPa | - | - | - | - |
| 1788369984 | 27.22° C | 76% | 1015 hPa | - | - | - | - |
| 1788366384 | 27.22° C | 70% | 1015 hPa | - | - | - | - |
| 1788360984 | 27.22° C | 75% | 1015 hPa | - | - | - | - |
| 1788357384 | 27.22° C | 75% | 1015 hPa | - | - | - | - |
| 1788355583 | 26.67° C | 74% | 1014 hPa | - | - | - | - |
| 1788353783 | 27.78° C | 71% | 1015 hPa | - | - | - | - |
| 1788351984 | 27.78° C | 66% | 1013 hPa | - | - | - | - |
| 1788350184 | 27.78° C | 67% | 1013 hPa | - | - | - | - |
| 1788348383 | 28.33° C | 68% | 1012 hPa | - | - | - | - |
| 1788346584 | 28.89° C | 64% | 1013 hPa | - | - | - | - |
| 1788344783 | 29.44° C | 56% | 1011 hPa | - | - | - | - |
| 1788342984 | 29.44° C | 55% | 1011 hPa | - | - | - | - |
| 1788341184 | 30° C | 54% | 1011 hPa | - | - | - | - |
| 1788339383 | 30.56° C | 68% | 1011 hPa | - | - | - | - |
| 1788337584 | 32.78° C | 10% | - | - | - | - | - |
| 1788335784 | 31.11° C | 63% | 1011 hPa | - | - | - | - |
| 1788333983 | 31.11° C | 65% | 1012 hPa | - | - | - | - |
| 1788332183 | 30.56° C | 65% | 1012 hPa | - | - | - | - |
| 1788330523 | 31.11° C | 65% | 1012 hPa | - | - | - | - |
* Rain since midnight (hover to see other rain measurements)
** Current wind speed in m/s (hover to see current wind gust speed)